Flag for Germany Weather past 2 weeks in Witten, North Rhine-Westphalia, Germany

Now
54 °F

Passing clouds.


Feels Like: 51 °F
Forecast: 35 / 58 °F
Wind: 8 mph from Northeast

Location: Dortmund / Wickede

Current Time: Apr 18, 2015 at 4:08:58 PM

Latest Report: Apr 18, 2015 at 3:20 PM


Visibility: N/A

Pressure: 30.30 "Hg

Humidity: 41%

Dew point: 30 °F

Location of WittenLocation

Historic Weather in Witten — Graph

°F

Witten temperature yesterday

Maximum temperature yesterday: 54 °F (at 3:50 PM)
Minimum temperature yesterday: 39 °F (at 5:20 AM)
Average temperature yesterday: 47 °F

Past Weeks' High & Low Weather Summary

 TemperatureHumidityPressure
High73 °F (Apr 15, 4:20 PM)93% (Apr 5, 7:50 AM)30.63 "Hg (Apr 5, 7:50 AM)
Low28 °F (Apr 5, 6:50 AM)20% (Apr 10, 5:50 PM)29.92 "Hg (Apr 15, 6:20 PM)
Average50 °F59%30.23 "Hg
* Reported Apr 3 2:20 PM — Apr 18 2:50 PM, Witten, Weather by CustomWeather, © 2015

Note: Actual official high and low records may vary slightly from our data, if they occured in-between our weather recording intervals... More about our weather records

Advertising

Witten weather history for previous 24 hours

 ConditionsComfort  
Time TempWeatherWind HumidityBarometerVisibility
2:50 PM
Sat, Apr 18
52 °FPassing clouds.8 mph41%30.30 "HgN/A
2:20 PM52 °FPassing clouds.7 mph41%30.33 "HgN/A
1:50 PM52 °FPassing clouds.9 mph41%30.33 "HgN/A
1:20 PM50 °FScattered clouds.7 mph50%30.33 "HgN/A
12:50 PM52 °FScattered clouds.9 mph47%30.33 "HgN/A
12:20 PM48 °FScattered clouds.6 mph54%30.33 "HgN/A
11:50 AM48 °FSunny.6 mph54%30.33 "Hg10 mi
11:20 AM48 °FSunny.7 mph58%30.33 "Hg10 mi
10:50 AM46 °FPassing clouds.7 mph57%30.33 "HgN/A
10:20 AM46 °FPassing clouds.8 mph57%30.33 "HgN/A
9:50 AM46 °FPassing clouds.8 mph62%30.33 "HgN/A
9:20 AM45 °FSunny.3 mph71%30.33 "Hg10 mi
8:50 AM41 °FPassing clouds.5 mph76%30.33 "HgN/A
8:20 AM41 °FSunny.2 mph76%30.30 "Hg10 mi
7:50 AM39 °FSunny.1 mph75%30.30 "Hg10 mi
7:20 AM36 °FClear.1 mph81%30.30 "Hg10 mi
6:50 AM34 °FClear.2 mph87%30.27 "Hg10 mi
6:20 AM36 °FClear.2 mph81%30.27 "Hg10 mi
5:50 AM34 °FClear.2 mph81%30.27 "Hg10 mi
5:20 AM34 °FClear.3 mph75%30.27 "Hg10 mi
10:50 PM
Fri, Apr 17
43 °FPassing clouds.6 mph57%30.18 "HgN/A
10:20 PM43 °FClear.6 mph57%30.15 "Hg10 mi
9:50 PM45 °FClear.5 mph53%30.15 "Hg10 mi
9:20 PM45 °FSunny.7 mph57%30.12 "Hg10 mi
8:50 PM46 °FSunny.8 mph53%30.12 "Hg10 mi
8:20 PM48 °FSunny.9 mph46%30.09 "Hg10 mi
7:50 PM50 °FSunny.9 mph40%30.09 "Hg10 mi
7:20 PM52 °FPassing clouds.9 mph44%30.07 "HgN/A
6:50 PM52 °FSunny.9 mph44%30.07 "Hg10 mi
6:20 PM50 °FSunny.9 mph50%30.07 "Hg10 mi
5:50 PM50 °FPassing clouds.10 mph47%30.07 "HgN/A
5:20 PM52 °FPassing clouds.9 mph44%30.07 "HgN/A
4:50 PM52 °FScattered clouds.9 mph47%30.07 "HgN/A
4:20 PM50 °FSunny.12 mph58%30.07 "Hg10 mi
Weather by CustomWeather, © 2015

See weather overviewHow to use our weather pages